When you browse on this site, cookies collect data to enhance your experience and personalize the content and advertising you see.
Visit our Privacy Policy to learn more. By continuing to use the site, you agree to this use of cookies and data.
  • In Hungary
  • List of Countries
  • For 7 days
  • Water Temperature
  • Satellite Maps
  • Weather Map
  • News
  • Weather Widgets
  • user-avatar
    Login

    Hourly Weather Szekesfehervar

    Today, 19 December, Wednesday

    Time Temperature Precipitation Wind Pressure Humidity
    00:00 -2°C° 0 mm 1 mps 761 mmHg 93%
    01:00 -3°C° 0 mm 1 mps 760 mmHg 93%
    02:00 -3°C° 0 mm 1 mps 760 mmHg 93%
    03:00 -3°C° 0 mm 1 mps 760 mmHg 94%
    04:00 -3°C° 0 mm 1 mps 760 mmHg 94%
    05:00 -3°C° 0 mm 1 mps 760 mmHg 94%
    06:00 -5°C° 0 mm 2 mps 760 mmHg 93%
    07:00 -6°C° 0 mm 2 mps 760 mmHg 93%
    08:00 -5°C° 0 mm 2 mps 760 mmHg 91%
    09:00 -4°C° 0 mm 2 mps 760 mmHg 89%
    10:00 -3°C° 0 mm 2 mps 760 mmHg 87%
    11:00 -4°C° 0 mm 3 mps 760 mmHg 86%
    12:00 -2°C° 0 mm 3 mps 760 mmHg 85%
    13:00 -2°C° 0 mm 3 mps 759 mmHg 84%
    14:00 -4°C° 0 mm 3 mps 759 mmHg 87%
    15:00 -5°C° 0 mm 3 mps 759 mmHg 91%
    16:00 -6°C° 0 mm 3 mps 759 mmHg 94%
    17:00 -6°C° 0 mm 3 mps 758 mmHg 94%
    18:00 -6°C° 0 mm 3 mps 758 mmHg 95%
    19:00 -7°C° 0 mm 4 mps 758 mmHg 96%
    20:00 -8°C° 0 mm 4 mps 758 mmHg 95%
    21:00 -8°C° 0 mm 4 mps 757 mmHg 94%
    22:00 -8°C° 0 mm 4 mps 757 mmHg 94%
    23:00 -8°C° 0 mm 4 mps 757 mmHg 93%

    Tomorrow, 20 December, Thursday

    Time Temperature Precipitation Wind Pressure Humidity
    00:00 -7°C° 0 mm 4 mps 757 mmHg 93%
    01:00 -7°C° 0 mm 4 mps 757 mmHg 93%
    02:00 -7°C° 0 mm 4 mps 756 mmHg 93%
    03:00 -6°C° 0 mm 3 mps 756 mmHg 93%
    04:00 -6°C° 0 mm 3 mps 756 mmHg 93%
    05:00 -6°C° 0 mm 3 mps 756 mmHg 93%
    06:00 -6°C° 0 mm 3 mps 756 mmHg 93%
    07:00 -5°C° 0 mm 2 mps 756 mmHg 94%
    08:00 -5°C° 0 mm 2 mps 757 mmHg 92%
    09:00 -5°C° 0 mm 2 mps 757 mmHg 91%
    10:00 -4°C° 0 mm 2 mps 757 mmHg 90%
    11:00 -4°C° 0.1 mm 2 mps 757 mmHg 90%
    12:00 -1°C° 0.1 mm 1 mps 757 mmHg 90%
    13:00 -1°C° 0.1 mm 1 mps 757 mmHg 90%
    14:00 -1°C° 0.1 mm 1 mps 757 mmHg 91%
    15:00 -1°C° 0.1 mm 1 mps 757 mmHg 92%
    16:00 -1°C° 0.1 mm 1 mps 757 mmHg 94%
    17:00 -1°C° 0.2 mm 1 mps 757 mmHg 94%
    18:00 -1°C° 0.2 mm 1 mps 757 mmHg 95%
    19:00 -1°C° 0.2 mm 1 mps 757 mmHg 95%
    20:00 -1°C° 0.3 mm 1 mps 757 mmHg 95%
    21:00 0°C° 0.3 mm 1 mps 758 mmHg 95%
    22:00 0°C° 0.3 mm 1 mps 758 mmHg 95%
    23:00 0°C° 0 mm 1 mps 758 mmHg 95%

    Day after tomorrow, 21 December, Friday

    Time Temperature Precipitation Wind Pressure Humidity
    00:00 -1°C° 0 mm 1 mps 758 mmHg 95%
    01:00 -1°C° 0 mm 1 mps 758 mmHg 95%
    02:00 -1°C° 0 mm 1 mps 758 mmHg 95%
    03:00 -1°C° 0 mm 1 mps 758 mmHg 95%
    04:00 -1°C° 0 mm 1 mps 757 mmHg 95%
    05:00 -3°C° 0 mm 2 mps 757 mmHg 95%
    06:00 -3°C° 0 mm 2 mps 757 mmHg 94%
    07:00 -3°C° 0 mm 2 mps 757 mmHg 94%
    08:00 -2°C° 0 mm 2 mps 757 mmHg 93%
    09:00 -1°C° 0 mm 3 mps 757 mmHg 92%
    10:00 -1°C° 0 mm 3 mps 756 mmHg 91%
    11:00 0°C° 0 mm 3 mps 756 mmHg 93%
    12:00 0°C° 0 mm 4 mps 755 mmHg 94%
    13:00 0°C° 0 mm 4 mps 754 mmHg 96%
    14:00 0°C° 0 mm 4 mps 754 mmHg 95%
    15:00 +1°C° 0 mm 4 mps 753 mmHg 95%
    16:00 +1°C° 0 mm 5 mps 753 mmHg 94%
    17:00 +1°C° 0.1 mm 5 mps 753 mmHg 93%
    18:00 +1°C° 0.1 mm 5 mps 752 mmHg 93%
    19:00 +3°C° 0.1 mm 4 mps 752 mmHg 92%
    20:00 +2°C° 0.1 mm 5 mps 752 mmHg 91%
    21:00 +2°C° 0.1 mm 5 mps 752 mmHg 90%
    22:00 +2°C° 0.1 mm 5 mps 751 mmHg 89%
    23:00 +2°C° 0.1 mm 5 mps 751 mmHg 89%

    22 December, Saturday

    Time Temperature Precipitation Wind Pressure Humidity
    00:00 +2°C° 0.1 mm 5 mps 751 mmHg 89%
    01:00 +3°C° 0.1 mm 4 mps 751 mmHg 89%
    02:00 +3°C° 1.3 mm 4 mps 751 mmHg 90%
    03:00 +3°C° 1.3 mm 4 mps 751 mmHg 92%
    04:00 +3°C° 1.3 mm 4 mps 750 mmHg 93%
    05:00 +3°C° 0.3 mm 4 mps 750 mmHg 93%
    06:00 +3°C° 0.3 mm 4 mps 750 mmHg 92%
    07:00 +3°C° 0.3 mm 4 mps 750 mmHg 91%
    08:00 +4°C° 0 mm 4 mps 750 mmHg 91%
    09:00 +4°C° 0 mm 4 mps 750 mmHg 90%
    10:00 +4°C° 0 mm 4 mps 750 mmHg 90%
    11:00 +5°C° 0.1 mm 5 mps 750 mmHg 87%
    12:00 +6°C° 0.1 mm 5 mps 750 mmHg 84%
    13:00 +7°C° 0.1 mm 5 mps 750 mmHg 81%
    14:00 +7°C° 0.1 mm 5 mps 750 mmHg 82%
    15:00 +7°C° 0.1 mm 5 mps 750 mmHg 83%
    16:00 +6°C° 0.1 mm 4 mps 750 mmHg 85%
    17:00 +6°C° 0.2 mm 4 mps 751 mmHg 84%
    18:00 +7°C° 0.2 mm 4 mps 751 mmHg 83%
    19:00 +7°C° 0.2 mm 4 mps 751 mmHg 82%
    20:00 +7°C° 0 mm 4 mps 752 mmHg 81%
    21:00 +6°C° 0 mm 4 mps 752 mmHg 81%
    22:00 +6°C° 0 mm 4 mps 753 mmHg 81%
    23:00 +6°C° 0.2 mm 4 mps 753 mmHg 83%

    23 December, Sunday

    Time Temperature Precipitation Wind Pressure Humidity
    00:00 +6°C° 0.2 mm 4 mps 753 mmHg 85%
    01:00 +7°C° 0.2 mm 3 mps 753 mmHg 88%
    02:00 +6°C° 0.3 mm 4 mps 753 mmHg 89%
    03:00 +6°C° 0.3 mm 4 mps 752 mmHg 91%
    04:00 +6°C° 0.3 mm 4 mps 752 mmHg 92%
    05:00 +6°C° 0.2 mm 4 mps 752 mmHg 92%
    06:00 +6°C° 0.2 mm 4 mps 752 mmHg 92%
    07:00 +6°C° 0.2 mm 5 mps 752 mmHg 91%
    08:00 +6°C° 0.1 mm 4 mps 753 mmHg 88%
    09:00 +6°C° 0.1 mm 4 mps 753 mmHg 86%
    10:00 +7°C° 0.1 mm 4 mps 753 mmHg 83%
    11:00 +7°C° 0 mm 5 mps 753 mmHg 79%
    12:00 +8°C° 0 mm 5 mps 753 mmHg 75%
    13:00 +8°C° 0 mm 5 mps 753 mmHg 71%
    14:00 +8°C° 0 mm 4 mps 753 mmHg 74%
    15:00 +7°C° 0 mm 4 mps 754 mmHg 76%
    16:00 +7°C° 0 mm 3 mps 754 mmHg 79%
    17:00 +7°C° 0 mm 3 mps 754 mmHg 81%
    18:00 +5°C° 0 mm 3 mps 754 mmHg 83%
    19:00 +5°C° 0 mm 3 mps 754 mmHg 85%
    20:00 +5°C° 0 mm 3 mps 755 mmHg 84%
    21:00 +5°C° 0 mm 3 mps 755 mmHg 84%
    22:00 +4°C° 0 mm 4 mps 755 mmHg 83%
    23:00 +4°C° 0.1 mm 4 mps 755 mmHg 82%

    24 December, Monday

    Time Temperature Precipitation Wind Pressure Humidity
    00:00 +5°C° 0.1 mm 4 mps 755 mmHg 80%
    01:00 +5°C° 0.1 mm 5 mps 755 mmHg 79%
    02:00 +3°C° 0.1 mm 5 mps 755 mmHg 77%
    03:00 +3°C° 0.1 mm 5 mps 755 mmHg 76%
    04:00 +3°C° 0.1 mm 5 mps 755 mmHg 75%
    05:00 +3°C° 0 mm 5 mps 755 mmHg 75%
    06:00 +2°C° 0 mm 5 mps 755 mmHg 76%
    07:00 +2°C° 0 mm 5 mps 756 mmHg 77%
    08:00 +3°C° 0 mm 6 mps 756 mmHg 74%
    09:00 +3°C° 0 mm 7 mps 756 mmHg 72%
    10:00 +4°C° 0 mm 8 mps 757 mmHg 69%
    11:00 +4°C° 0 mm 8 mps 757 mmHg 67%
    12:00 +4°C° 0 mm 8 mps 757 mmHg 65%
    13:00 +5°C° 0 mm 8 mps 757 mmHg 63%
    14:00 +4°C° 0 mm 7 mps 757 mmHg 66%
    15:00 +5°C° 0 mm 5 mps 757 mmHg 70%
    16:00 +4°C° 0 mm 4 mps 758 mmHg 73%
    17:00 +3°C° 0 mm 4 mps 758 mmHg 75%
    18:00 +3°C° 0 mm 4 mps 758 mmHg 77%
    19:00 +3°C° 0 mm 4 mps 759 mmHg 79%
    20:00 +1°C° 0 mm 4 mps 759 mmHg 79%
    21:00 +1°C° 0 mm 4 mps 759 mmHg 79%
    22:00 +1°C° 0 mm 4 mps 759 mmHg 79%
    23:00 +1°C° 0 mm 4 mps 759 mmHg 79%
    Show more